Location: Moonridge Observatory
(39.2268°N, 77.7914°W)
Time: 23:20:27
(UTC-04:00)

Amateur Radio Satellites - All Passes

Search period start: 24 June 2016 22:50
Search period end: 25 June 2016 22:50
Location: Moonridge Observatory, 39.2268°N, 77.7914°W

Satellite Date Start Highest point End Downlink Frequencies (MHz)
Time Altitude Azimuth
DX 1 24 Jun 22:54:11 22:54:54 10° 62° (ENE) 22:55:37 434.975-435.025
DELFI C3 24 Jun 22:55:29 22:58:55 27° 264° (W) 23:02:23 145.870
ZACube-1 24 Jun 22:59:15 23:01:21 13° 269° (W) 23:03:28 437.345
PRISM 24 Jun 23:02:03 23:04:13 14° 295° (WNW) 23:06:23 437.425
AO-85 24 Jun 23:03:47 23:09:13 84° 120° (ESE) 23:14:32 145.980
ANTELSAT 24 Jun 23:09:20 23:13:45 43° 98° (E) 23:18:12 437.575/2403.000
RS-15 24 Jun 23:09:51 23:21:48 60° 248° (WSW) 23:33:36 29.354- 29.394
50 SAT 24 Jun 23:10:32 23:13:07 18° 68° (ENE) 23:15:44 437.505
VELOX 1 24 Jun 23:11:34 23:14:52 21° 67° (ENE) 23:18:10 145.980
HUMSAT D 24 Jun 23:12:30 23:16:23 39° 262° (W) 23:20:20 437.325/437.525
CUBEBUG 1 24 Jun 23:14:53 23:18:23 24° 68° (ENE) 23:21:52 437.445
ESTCUBE 1 24 Jun 23:28:27 23:32:51 51° 73° (ENE) 23:37:15 437.505/2401.250
NANOSAT C BR1 24 Jun 23:40:20 23:42:27 13° 92° (E) 23:44:34 145.865
QB50P1 24 Jun 23:40:33 23:42:54 14° 92° (E) 23:45:14 145.935-145.965
POPSAT HIP 1 24 Jun 23:43:11 23:45:42 15° 93° (E) 23:48:13 437.405
AISAT 24 Jun 23:50:38 23:54:58 59° 74° (ENE) 23:59:19 437.250
QB50P2 24 Jun 23:53:42 23:57:01 22° 95° (E) 00:00:20 145.880/145.840
POLYITAN 1 24 Jun 23:56:17 23:59:39 22° 95° (E) 00:03:01 437.675
Cosmos 2491 24 Jun 23:57:29 00:02:13 16° 77° (ENE) 00:06:56 435.465 / 435.565
DUCHIFAT 1 25 Jun 00:02:01 00:05:22 23° 95° (E) 00:08:43 145.980
TIGRISAT 25 Jun 00:02:16 00:06:45 53° 286° (WNW) 00:11:18 435.000
UNISAT 6 25 Jun 00:05:58 00:10:22 46° 288° (WNW) 00:14:50 437.425
UKube-1 25 Jun 00:14:29 00:18:45 65° 75° (ENE) 00:23:02 .
SPROUT 25 Jun 00:24:33 00:28:41 54° 74° (ENE) 00:32:50 437.525
DX 1 25 Jun 00:26:08 00:30:28 73° 257° (WSW) 00:34:50 434.975-435.025
TISAT 1 25 Jun 00:27:14 00:29:32 15° 65° (ENE) 00:31:50 437.305
JAS-2 25 Jun 00:27:30 00:28:31 10° 86° (E) 00:29:30 435.910
YUBILEINY 25 Jun 00:42:52 00:51:40 65° 79° (E) 01:00:25 435.215
50 SAT 25 Jun 00:43:26 00:46:36 27° 263° (W) 00:49:49 437.505
Cosmos 2504 25 Jun 00:43:53 00:50:23 22° 65° (ENE) 00:56:45 435.465 / 435.565
AO-85 25 Jun 00:46:47 00:50:20 17° 317° (NW) 00:53:47 145.980
ANTELSAT 25 Jun 00:46:56 00:50:08 19° 294° (WNW) 00:53:21 437.575/2403.000
VELOX 1 25 Jun 00:47:05 00:51:06 34° 262° (W) 00:55:08 145.980
CUBEBUG 1 25 Jun 00:50:44 00:54:31 29° 263° (W) 00:58:19 437.445
ESTCUBE 1 25 Jun 01:07:28 01:09:55 14° 268° (W) 01:12:24 437.505/2401.250
NANOSAT C BR1 25 Jun 01:14:21 01:18:25 47° 287° (WNW) 01:22:29 145.865
QB50P1 25 Jun 01:14:51 01:18:53 44° 287° (WNW) 01:22:55 145.935-145.965
BUGSAT 1 25 Jun 01:15:23 01:19:28 72° 102° (ESE) 01:23:33 437.445
POPSAT HIP 1 25 Jun 01:17:39 01:21:40 42° 288° (WNW) 01:25:41 437.405
QB50P2 25 Jun 01:29:07 01:32:49 29° 290° (WNW) 01:36:31 145.880/145.840
AISAT 25 Jun 01:30:13 01:31:48 12° 269° (W) 01:33:22 437.250
RS-15 25 Jun 01:30:15 01:31:30 10° 268° (W) 01:32:44 29.354- 29.394
POLYITAN 1 25 Jun 01:31:45 01:35:26 29° 290° (WNW) 01:39:07 437.675
DUCHIFAT 1 25 Jun 01:37:25 01:41:02 28° 290° (WNW) 01:44:39 145.980
Cosmos 2491 25 Jun 01:48:53 01:57:41 87° 96° (E) 02:06:30 435.465 / 435.565
Gurwin Techsat 1B 25 Jun 01:59:24 02:01:43 13° 90° (E) 02:04:02 435.225
TISAT 1 25 Jun 02:00:48 02:04:47 45° 261° (W) 02:08:48 437.305
SWISSCUBE 25 Jun 02:02:08 02:06:28 36° 70° (ENE) 02:10:51 437.505
SPROUT 25 Jun 02:03:22 02:04:56 12° 269° (W) 02:06:31 437.525
SO-50 25 Jun 02:06:41 02:11:19 61° 56° (NE) 02:15:46 436.795
JAS-2 25 Jun 02:08:43 02:14:33 82° 285° (WNW) 02:19:50 435.910
Oscar 19 25 Jun 02:14:22 02:19:15 43° 99° (E) 02:24:05 437.125/150
ITUPSAT 1 25 Jun 02:25:44 02:30:24 55° 73° (ENE) 02:35:07 437.325
BEESAT 25 Jun 02:27:32 02:32:13 59° 73° (ENE) 02:36:56 436.000
Cosmos 2504 25 Jun 02:35:52 02:44:48 81° 265° (W) 02:53:24 435.465 / 435.565
YUBILEINY 25 Jun 02:40:53 02:47:42 26° 278° (W) 02:54:31 435.215
KKS-1 25 Jun 02:50:41 02:52:06 11° 62° (ENE) 02:53:32 437.445
AO-7 25 Jun 03:06:11 03:06:48 10° 87° (E) 03:07:27 29.400- 29.500
BEESAT 3 25 Jun 03:12:47 03:15:42 20° 112° (ESE) 03:18:38 437.485
PCSat 25 Jun 03:31:00 03:36:24 79° 116° (ESE) 03:41:52 145.827
STARS 25 Jun 03:32:50 03:35:32 16° 65° (ENE) 03:38:15 437.465
Gurwin Techsat 1B 25 Jun 03:36:51 03:42:11 73° 286° (WNW) 03:47:28 435.225
SWISSCUBE 25 Jun 03:40:35 03:44:19 23° 265° (W) 03:48:06 437.505
BEESAT 2 25 Jun 03:42:01 03:45:12 23° 113° (ESE) 03:48:23 435.950
MOZHAYETS 4 25 Jun 03:44:04 03:48:18 37° 71° (ENE) 03:52:34
SO-50 25 Jun 03:48:56 03:51:13 14° 253° (WSW) 03:53:28 436.795
Cosmos 2491 25 Jun 03:49:55 03:55:41 19° 296° (WNW) 04:01:30 435.465 / 435.565
Oscar 19 25 Jun 03:54:23 03:58:15 22° 295° (WNW) 04:02:07 437.125/150
JAS-2 25 Jun 03:57:12 03:58:28 11° 305° (NW) 03:59:44 435.910
ITUPSAT 1 25 Jun 04:05:56 04:08:34 15° 268° (W) 04:11:13 437.325
ITAMSAT 1 25 Jun 04:06:39 04:11:55 77° 103° (ESE) 04:17:08 435.822/435.867
BEESAT 25 Jun 04:07:59 04:10:21 14° 269° (W) 04:12:44 436.000
O/OREOS (USA 219) 25 Jun 04:16:16 04:20:45 69° 293° (WNW) 04:25:15 437.305
KKS-1 25 Jun 04:23:41 04:28:05 68° 258° (WSW) 04:32:30 437.445
AIST 1 25 Jun 04:28:52 04:32:16 23° 75° (ENE) 04:35:40
Cosmos 2504 25 Jun 04:32:13 04:36:39 15° 284° (WNW) 04:41:03 435.465 / 435.565
GONETS M04 25 Jun 04:45:20 04:50:12 16° 62° (ENE) 04:55:03
BEESAT 3 25 Jun 04:49:39 04:53:11 32° 308° (NW) 04:56:45 437.485
AO-7 25 Jun 04:52:38 05:01:00 66° 105° (ESE) 05:09:17 29.400- 29.500
CUBESAT XI-V 25 Jun 05:00:45 05:04:46 28° 69° (ENE) 05:08:46 437.345
STARS 25 Jun 05:07:22 05:11:32 44° 261° (W) 05:15:43 437.465
PCSat 25 Jun 05:16:57 05:20:27 17° 315° (NW) 05:23:57 145.827
BEESAT 2 25 Jun 05:19:26 05:22:54 28° 309° (NW) 05:26:24 435.950
MOZHAYETS 4 25 Jun 05:22:09 05:25:34 20° 267° (W) 05:29:00
AIST 2 25 Jun 05:28:06 05:30:52 18° 110° (ESE) 05:33:39 435.215
Cosmos 2499 25 Jun 05:32:28 05:38:55 22° 65° (ENE) 05:45:08 435.465 / 435.565
HORYU 2 25 Jun 05:41:20 05:45:35 41° 99° (E) 05:49:51 437.375
ITAMSAT 1 25 Jun 05:48:12 05:50:41 14° 300° (WNW) 05:53:11 435.822/435.867
AIST 1 25 Jun 06:06:17 06:09:48 25° 271° (W) 06:13:17
CUTE-I 25 Jun 06:19:04 06:22:06 15° 91° (E) 06:25:08 437.470
STRAND 1 25 Jun 06:22:11 06:25:22 17° 62° (ENE) 06:28:32 437.568
CUBESAT XI-V 25 Jun 06:38:02 06:42:03 28° 265° (W) 06:46:05 437.345
GONETS M04 25 Jun 06:39:42 06:48:28 82° 82° (E) 06:57:14
NOAA 18 25 Jun 06:43:46 06:48:33 29° 96° (E) 06:53:19 137.9125
AO-7 25 Jun 06:46:19 06:53:08 29° 303° (WNW) 06:59:55 29.400- 29.500
GOMX 1 25 Jun 06:55:46 06:58:41 18° 94° (E) 07:01:39 467.674
NOAA 15 25 Jun 06:59:00 07:04:07 51° 100° (E) 07:09:11 137.62
AIST 2 25 Jun 07:05:10 07:09:02 39° 306° (NW) 07:12:56 435.215
HORYU 2 25 Jun 07:18:46 07:21:49 18° 295° (WNW) 07:24:53 437.375
DANDE 25 Jun 07:20:50 07:24:42 14° 79° (E) 07:28:32 436.750
Cubesat XI-IV 25 Jun 07:21:32 07:26:52 60° 101° (E) 07:32:10 437.490
LilacSat-2 25 Jun 07:23:25 07:27:18 68° 102° (ESE) 07:31:09 437.200
Cosmos 2499 25 Jun 07:24:14 07:33:05 80° 265° (W) 07:41:26 435.465 / 435.565
CUSAT 1 25 Jun 07:31:57 07:38:50 33° 90° (E) 07:45:04 437.405
AO-85 25 Jun 07:37:29 07:41:55 49° 54° (NE) 07:45:57 145.980
BRITE-PL 25 Jun 07:39:02 07:43:08 57° 286° (WNW) 07:47:12 437.365/2234.400
PHONESAT 2.4 25 Jun 07:40:05 07:40:47 11° 145° (SE) 07:41:29 2401.200-2431.200
CUTE-I 25 Jun 07:57:14 08:02:35 64° 287° (WNW) 08:07:52 437.470
STRAND 1 25 Jun 07:58:57 08:04:01 60° 259° (W) 08:09:07 437.568
CINEMA 3 25 Jun 08:03:47 08:06:15 14° 92° (E) 08:08:46 145.822/145.860
PRISM 25 Jun 08:13:50 08:17:25 29° 70° (ENE) 08:21:01 437.425
DOVE 4 25 Jun 08:15:01 08:19:16 66° 101° (E) 08:23:42 437.250
NOAA 18 25 Jun 08:24:11 08:29:13 36° 292° (WNW) 08:34:13 137.9125
CANX-2 25 Jun 08:27:40 08:31:14 25° 95° (E) 08:34:44 2200.000
HO-68 25 Jun 08:29:45 08:36:06 32° 96° (E) 08:42:24 435.675
GOMX 1 25 Jun 08:33:08 08:36:52 33° 289° (WNW) 08:40:42 467.674
GONETS M04 25 Jun 08:38:34 08:44:09 19° 281° (W) 08:49:46
NOAA 15 25 Jun 08:39:47 08:43:29 20° 296° (WNW) 08:47:10 137.62
COMPASS 1 25 Jun 08:45:30 08:48:13 17° 93° (E) 08:50:55 437.405
CUTE 1.7 + AOD 2 25 Jun 08:48:08 08:52:07 36° 97° (E) 08:56:03 437.475
DANDE 25 Jun 08:58:02 09:06:19 73° 95° (E) 09:14:25 436.750
SEEDS 25 Jun 08:59:23 09:03:17 35° 97° (E) 09:07:08 437.485
Cubesat XI-IV 25 Jun 09:02:54 09:06:26 18° 297° (WNW) 09:09:56 437.490
M-CUBED/EXP-1 PRIME 25 Jun 09:05:57 09:07:07 11° 99° (E) 09:08:17 437.505
ZACube-1 25 Jun 09:12:50 09:13:33 10° 90° (E) 09:14:14 437.345
CUSAT 1 25 Jun 09:13:02 09:20:43 50° 283° (WNW) 09:27:32 437.405
PHONESAT 2.4 25 Jun 09:13:57 09:16:56 49° 159° (SSE) 09:19:56 2401.200-2431.200
AO-85 25 Jun 09:19:27 09:21:48 14° 253° (WSW) 09:24:03 145.980
Cosmos 2499 25 Jun 09:20:27 09:24:37 14° 285° (WNW) 09:28:43 435.465 / 435.565
UWE-3 25 Jun 09:22:26 09:25:58 22° 94° (E) 09:29:32 435.000/436.395/437.385
TIGRISAT 25 Jun 09:26:56 09:27:53 11° 62° (ENE) 09:28:49 435.000
Oscar 11 25 Jun 09:28:34 09:31:21 17° 93° (E) 09:34:08 145.826/435.025
UNISAT 6 25 Jun 09:29:46 09:31:36 13° 63° (ENE) 09:33:26 437.425
FUNcube-1 25 Jun 09:30:40 09:33:31 16° 92° (E) 09:36:22 145.935
ISS 25 Jun 09:36:45 09:39:15 21° 132° (SE) 09:41:46 145.825
CINEMA 3 25 Jun 09:39:16 09:43:36 51° 286° (WNW) 09:48:08 145.822/145.860
PRISM 25 Jun 09:49:29 09:52:42 22° 265° (W) 09:55:56 437.425
AAUSAT CUBESAT 2 25 Jun 09:49:32 09:53:44 76° 103° (ESE) 09:57:52 437.432
DOVE 4 25 Jun 09:55:24 09:56:29 11° 296° (WNW) 09:57:35 437.250
AUBIESAT-1 25 Jun 10:02:10 10:05:52 43° 105° (ESE) 10:09:50 437.475
CUBEBUG 2 25 Jun 10:02:21 10:06:56 87° 103° (ESE) 10:11:38 437.445
CANX-2 25 Jun 10:03:24 10:07:00 26° 290° (WNW) 10:10:34 2200.000
ANTELSAT 25 Jun 10:07:27 10:11:13 31° 70° (ENE) 10:15:05 437.575/2403.000
HO-68 25 Jun 10:17:07 10:23:55 47° 293° (WNW) 10:30:42 435.675
COMPASS 1 25 Jun 10:20:01 10:23:54 37° 288° (WNW) 10:27:45 437.405
CUTE 1.7 + AOD 2 25 Jun 10:24:42 10:27:40 18° 293° (WNW) 10:30:37 437.475
DELFI C3 25 Jun 10:33:38 10:37:24 38° 98° (E) 10:41:07 145.870
SEEDS 25 Jun 10:35:44 10:38:44 19° 293° (WNW) 10:41:42 437.485
POPSAT HIP 1 25 Jun 10:36:43 10:37:32 10° 63° (ENE) 10:38:20 437.405
M-CUBED/EXP-1 PRIME 25 Jun 10:38:07 10:41:48 53° 290° (WNW) 10:45:47 437.505
DANDE 25 Jun 10:42:59 10:49:43 26° 292° (WNW) 10:56:16 436.750
ZACube-1 25 Jun 10:45:44 10:50:14 70° 284° (WNW) 10:54:47 437.345
QB50P2 25 Jun 10:46:18 10:48:42 15° 65° (ENE) 10:51:07 145.880/145.840
POLYITAN 1 25 Jun 10:48:52 10:51:19 15° 65° (ENE) 10:53:46 437.675
PHONESAT 2.4 25 Jun 10:50:28 10:53:32 68° 356° (N) 10:56:37 2401.200-2431.200
DUCHIFAT 1 25 Jun 10:53:52 10:56:17 15° 65° (ENE) 10:58:42 145.980
HUMSAT D 25 Jun 10:56:45 11:00:41 34° 97° (E) 11:04:36 437.325/437.525
UWE-3 25 Jun 10:58:21 11:02:28 34° 289° (WNW) 11:06:39 435.000/436.395/437.385
TIGRISAT 25 Jun 10:59:43 11:03:57 68° 259° (W) 11:08:16 435.000
Oscar 11 25 Jun 11:03:33 11:07:39 40° 288° (WNW) 11:11:43 145.826/435.025
UNISAT 6 25 Jun 11:03:35 11:07:46 57° 259° (W) 11:12:05 437.425
FUNcube-1 25 Jun 11:05:38 11:09:56 45° 287° (WNW) 11:14:17 145.935
ISS 25 Jun 11:12:26 11:15:32 39° 328° (NNW) 11:18:38 145.825
RS-15 25 Jun 11:21:53 11:30:35 27° 101° (E) 11:39:35 29.354- 29.394
ESTCUBE 1 25 Jun 11:24:23 11:25:48 11° 90° (E) 11:27:14 437.505/2401.250
BEESAT 3 25 Jun 11:31:42 11:33:04 11° 42° (NE) 11:34:25 437.485
AUBIESAT-1 25 Jun 11:37:54 11:40:05 15° 297° (WNW) 11:42:19 437.475
AISAT 25 Jun 11:44:01 11:45:36 12° 91° (E) 11:47:10 437.250
ANTELSAT 25 Jun 11:44:47 11:47:59 20° 266° (W) 11:51:15 437.575/2403.000
YUBILEINY 25 Jun 11:52:00 11:55:27 13° 75° (ENE) 11:58:53 435.215
Cosmos 2491 25 Jun 12:00:56 12:09:04 41° 74° (ENE) 12:17:09 435.465 / 435.565
BEESAT 2 25 Jun 12:01:31 12:03:28 13° 43° (NE) 12:05:24 435.950
BUGSAT 1 25 Jun 12:04:04 12:07:51 40° 72° (ENE) 12:11:38 437.445
NANOSAT C BR1 25 Jun 12:04:57 12:09:07 76° 259° (W) 12:13:18 145.865
UKube-1 25 Jun 12:04:58 12:06:21 11° 91° (E) 12:07:45 .
QB50P1 25 Jun 12:05:43 12:09:53 70° 259° (WSW) 12:14:05 145.935-145.965
POPSAT HIP 1 25 Jun 12:08:35 12:12:44 66° 258° (WSW) 12:16:55 437.405
DELFI C3 25 Jun 12:09:34 12:11:55 15° 294° (WNW) 12:14:16 145.870
50 SAT 25 Jun 12:13:21 12:16:27 25° 96° (E) 12:19:30 437.505
DX 1 25 Jun 12:16:07 12:19:20 20° 95° (E) 12:22:32 434.975-435.025
JAS-2 25 Jun 12:17:25 12:24:36 44° 69° (ENE) 12:31:18 435.910
PCSat 25 Jun 12:20:02 12:25:18 49° 57° (ENE) 12:30:32 145.827
QB50P2 25 Jun 12:20:07 12:24:07 44° 261° (W) 12:28:10 145.880/145.840
POLYITAN 1 25 Jun 12:22:46 12:26:44 43° 261° (W) 12:30:45 437.675
PHONESAT 2.4 25 Jun 12:27:10 12:30:15 89° 206° (SSW) 12:33:21 2401.200-2431.200
DUCHIFAT 1 25 Jun 12:27:39 12:31:36 43° 261° (W) 12:35:36 145.980
HUMSAT D 25 Jun 12:32:54 12:36:04 20° 292° (WNW) 12:39:14 437.325/437.525
VELOX 1 25 Jun 12:37:45 12:42:00 46° 100° (E) 12:46:12 145.980
CUBEBUG 1 25 Jun 12:39:37 12:43:51 53° 100° (E) 12:48:04 437.445
O/OREOS (USA 219) 25 Jun 12:48:59 12:52:07 18° 57° (ENE) 12:55:15 437.305
ISS 25 Jun 12:51:20 12:52:41 12° 347° (NNW) 12:54:02 145.825
ESTCUBE 1 25 Jun 12:58:33 13:03:01 62° 285° (WNW) 13:07:26 437.505/2401.250
BEESAT 3 25 Jun 13:07:19 13:11:16 80° 239° (WSW) 13:15:12 437.485
AISAT 25 Jun 13:18:06 13:22:25 58° 286° (WNW) 13:26:43 437.250
Gurwin Techsat 1B 25 Jun 13:18:53 13:22:40 20° 64° (ENE) 13:26:27 435.225
Cosmos 2504 25 Jun 13:23:26 13:27:48 16° 76° (ENE) 13:32:17 435.465 / 435.565
Oscar 19 25 Jun 13:30:00 13:35:03 57° 72° (ENE) 13:40:05 437.125/150
RS-15 25 Jun 13:30:11 13:41:36 80° 302° (WNW) 13:53:43 29.354- 29.394
BEESAT 2 25 Jun 13:37:46 13:41:45 67° 241° (WSW) 13:45:41 435.950
UKube-1 25 Jun 13:38:30 13:42:44 57° 287° (WNW) 13:46:57 .
BUGSAT 1 25 Jun 13:41:18 13:43:24 14° 267° (W) 13:45:31 437.445
YUBILEINY 25 Jun 13:41:58 13:50:37 77° 94° (E) 13:59:22 435.215
TISAT 1 25 Jun 13:45:50 13:49:27 27° 96° (E) 13:53:04 437.305
SPROUT 25 Jun 13:47:10 13:51:24 65° 286° (WNW) 13:55:38 437.525
50 SAT 25 Jun 13:47:16 13:49:58 19° 291° (WNW) 13:52:39 437.505
ITAMSAT 1 25 Jun 13:47:32 13:49:56 13° 60° (ENE) 13:52:21 435.822/435.867
AIST 2 25 Jun 13:50:43 13:52:11 12° 41° (NE) 13:53:39 435.215
DX 1 25 Jun 13:51:41 13:55:35 33° 290° (WNW) 13:59:27 434.975-435.025
Cosmos 2491 25 Jun 13:57:53 14:05:49 41° 273° (W) 14:13:44 435.465 / 435.565
AO-7 25 Jun 14:01:49 14:06:54 18° 50° (NE) 14:12:01 29.400- 29.500
JAS-2 25 Jun 14:02:27 14:09:33 38° 263° (W) 14:16:15 435.910
PHONESAT 2.4 25 Jun 14:04:06 14:06:40 24° 208° (SSW) 14:09:14 2401.200-2431.200
PCSat 25 Jun 14:04:16 14:08:19 22° 254° (WSW) 14:12:20 145.827
VELOX 1 25 Jun 14:15:25 14:18:04 16° 295° (WNW) 14:20:43 145.980
CUBEBUG 1 25 Jun 14:17:35 14:19:41 13° 296° (WNW) 14:21:46 437.445
O/OREOS (USA 219) 25 Jun 14:27:29 14:31:42 42° 254° (WSW) 14:35:56 437.305
ITUPSAT 1 25 Jun 14:28:40 14:31:30 15° 92° (E) 14:34:18 437.325
ISS 25 Jun 14:29:50 14:30:19 10° 7° (N) 14:30:48 145.825
BEESAT 25 Jun 14:29:57 14:32:56 16° 92° (E) 14:35:53 436.000
Gurwin Techsat 1B 25 Jun 14:57:03 15:02:11 51° 260° (W) 15:07:23 435.225
Oscar 19 25 Jun 15:11:36 15:14:41 16° 268° (W) 15:17:49 437.125/150
Cosmos 2504 25 Jun 15:11:45 15:19:43 88° 93° (E) 15:28:20 435.465 / 435.565
TISAT 1 25 Jun 15:21:39 15:24:58 23° 292° (WNW) 15:28:16 437.305
ITAMSAT 1 25 Jun 15:23:30 15:28:42 78° 257° (WSW) 15:33:57 435.822/435.867
AIST 2 25 Jun 15:27:06 15:31:16 88° 240° (WSW) 15:35:25 435.215
SWISSCUBE 25 Jun 15:40:28 15:45:17 83° 283° (WNW) 15:50:04 437.505
YUBILEINY 25 Jun 15:41:59 15:48:20 22° 294° (WNW) 15:54:47 435.215
RS-15 25 Jun 15:46:37 15:56:20 29° 330° (NNW) 16:06:27 29.354- 29.394
AO-7 25 Jun 15:50:04 15:58:23 80° 70° (ENE) 16:06:46 29.400- 29.500
ISS 25 Jun 16:04:53 16:07:41 25° 27° (NNE) 16:10:27 145.825
ITUPSAT 1 25 Jun 16:04:56 16:09:37 53° 288° (WNW) 16:14:16 437.325
BEESAT 25 Jun 16:06:20 16:10:58 50° 288° (WNW) 16:15:35 436.000
KKS-1 25 Jun 16:16:08 16:19:45 24° 96° (E) 16:23:21 437.445
SO-50 25 Jun 16:20:05 16:24:07 26° 112° (ESE) 16:28:10 436.795
HORYU 2 25 Jun 16:38:21 16:42:19 34° 70° (ENE) 16:46:20 437.375
STARS 25 Jun 16:57:41 17:01:41 34° 98° (E) 17:05:41 437.465
AIST 1 25 Jun 16:58:13 17:00:37 15° 86° (E) 17:03:01
Cubesat XI-IV 25 Jun 17:06:52 17:08:32 11° 59° (ENE) 17:10:13 437.490
Cosmos 2504 25 Jun 17:09:06 17:14:23 18° 297° (WNW) 17:19:54 435.465 / 435.565
BRITE-PL 25 Jun 17:12:07 17:14:59 15° 65° (ENE) 17:17:45 437.365/2234.400
MOZHAYETS 4 25 Jun 17:16:40 17:21:20 80° 285° (WNW) 17:25:57
CUTE-I 25 Jun 17:39:28 17:43:37 24° 65° (ENE) 17:47:48 437.470
ISS 25 Jun 17:41:07 17:44:13 39° 224° (SW) 17:47:16 145.825
AO-7 25 Jun 17:46:07 17:51:55 20° 267° (W) 17:57:47 29.400- 29.500
GONETS M04 25 Jun 17:46:41 17:52:00 18° 78° (ENE) 17:57:19
KKS-1 25 Jun 17:52:27 17:56:17 29° 291° (WNW) 18:00:07 437.445
SO-50 25 Jun 17:59:52 18:04:26 38° 308° (NW) 18:09:00 436.795
GOMX 1 25 Jun 18:03:01 18:06:26 20° 68° (ENE) 18:09:42 467.674
LilacSat-2 25 Jun 18:04:41 18:07:53 27° 71° (ENE) 18:11:08 437.200
RS-15 25 Jun 18:06:30 18:14:42 20° 6° (N) 18:23:01 29.354- 29.394
NOAA 18 25 Jun 18:08:53 18:14:07 50° 70° (ENE) 18:19:24 137.9125
Cosmos 2499 25 Jun 18:09:54 18:14:24 16° 76° (ENE) 18:19:02 435.465 / 435.565
HORYU 2 25 Jun 18:15:37 18:18:56 21° 265° (W) 18:22:16 437.375
NOAA 15 25 Jun 18:17:51 18:23:08 74° 74° (ENE) 18:28:26 137.62
AIST 1 25 Jun 18:33:42 18:37:49 41° 281° (W) 18:41:55
STARS 25 Jun 18:34:32 18:37:49 21° 293° (WNW) 18:41:06 437.465
CUBESAT XI-V 25 Jun 18:34:47 18:39:26 80° 103° (ESE) 18:44:02 437.345
Cubesat XI-IV 25 Jun 18:42:25 18:47:46 87° 75° (ENE) 18:53:10 437.490
BRITE-PL 25 Jun 18:47:52 18:53:03 62° 259° (W) 18:57:52 437.365/2234.400
HO-68 25 Jun 18:58:25 19:03:42 23° 59° (ENE) 19:09:00 435.675
CINEMA 3 25 Jun 19:06:42 19:07:29 10° 63° (ENE) 19:08:17 145.822/145.860
CUTE-I 25 Jun 19:18:19 19:23:22 43° 261° (W) 19:28:29 437.470
DOVE 4 25 Jun 19:19:32 19:23:53 57° 75° (ENE) 19:28:03 437.250
CANX-2 25 Jun 19:20:11 19:22:53 16° 66° (ENE) 19:25:35 2200.000
JUGNU 25 Jun 19:35:07 19:36:13 10° 184° (S) 19:37:18 437.505
COMPASS 1 25 Jun 19:37:10 19:38:09 11° 63° (ENE) 19:39:08 437.405
GONETS M04 25 Jun 19:38:53 19:47:38 85° 277° (W) 19:56:23
LilacSat-2 25 Jun 19:39:35 19:42:12 18° 266° (W) 19:44:51 437.200
GOMX 1 25 Jun 19:39:53 19:44:19 37° 262° (W) 19:48:30 467.674
CUTE 1.7 + AOD 2 25 Jun 19:40:03 19:43:27 23° 69° (ENE) 19:46:52 437.475
DANDE 25 Jun 19:42:29 19:47:32 40° 72° (ENE) 19:51:20 436.750
SEEDS 25 Jun 19:50:26 19:53:41 22° 68° (ENE) 19:56:59 437.485
NOAA 18 25 Jun 19:51:03 19:55:01 20° 266° (W) 19:59:01 137.9125
CUSAT 1 25 Jun 19:51:55 19:55:44 50° 266° (W) 19:58:44 437.405
Cosmos 2499 25 Jun 19:57:54 20:06:03 87° 97° (E) 20:14:50 435.465 / 435.565
NOAA 15 25 Jun 20:01:12 20:03:25 13° 270° (W) 20:05:39 137.62
STRAND 1 25 Jun 20:10:30 20:15:31 50° 100° (E) 20:20:30 437.568
CUBESAT XI-V 25 Jun 20:15:16 20:16:07 10° 299° (WNW) 20:16:58 437.345
UWE-3 25 Jun 20:19:43 20:22:01 15° 65° (ENE) 20:24:20 435.000/436.395/437.385
RS-15 25 Jun 20:21:02 20:32:17 38° 40° (NE) 20:43:28 29.354- 29.394
Oscar 11 25 Jun 20:23:39 20:25:19 12° 63° (ENE) 20:26:59 145.826/435.025
FUNcube-1 25 Jun 20:27:22 20:28:16 11° 63° (ENE) 20:29:10 145.935
Cubesat XI-IV 25 Jun 20:27:46 20:28:29 10° 271° (W) 20:29:13 437.490
AAUSAT CUBESAT 2 25 Jun 20:38:28 20:42:24 41° 73° (ENE) 20:46:23 437.432
CINEMA 3 25 Jun 20:39:58 20:44:06 62° 259° (W) 20:48:13 145.822/145.860
SRMSAT 25 Jun 20:43:10 20:44:25 11° 178° (S) 20:45:40 437.500
HO-68 25 Jun 20:43:37 20:50:44 70° 256° (WSW) 20:57:55 435.675
AUBIESAT-1 25 Jun 20:48:08 20:51:16 40° 68° (ENE) 20:54:23 437.475
CANX-2 25 Jun 20:54:20 20:58:23 41° 262° (W) 21:02:28 2200.000
CUBEBUG 2 25 Jun 20:59:30 21:03:34 60° 75° (ENE) 21:07:44 437.445
DOVE 4 25 Jun 21:00:36 21:01:53 11° 269° (W) 21:03:10 437.250
COMPASS 1 25 Jun 21:08:57 21:13:08 66° 260° (W) 21:17:21 437.405
CUTE 1.7 + AOD 2 25 Jun 21:15:28 21:19:08 28° 264° (W) 21:22:51 437.475
DELFI C3 25 Jun 21:19:00 21:22:01 21° 68° (ENE) 21:25:02 145.870
M-CUBED/EXP-1 PRIME 25 Jun 21:24:35 21:27:44 42° 255° (WSW) 21:30:52 437.505
SEEDS 25 Jun 21:25:30 21:29:13 30° 264° (W) 21:32:58 437.485
DANDE 25 Jun 21:26:40 21:29:34 16° 280° (W) 21:32:05 436.750
PRISM 25 Jun 21:31:00 21:35:00 52° 101° (E) 21:38:58 437.425
ZACube-1 25 Jun 21:40:18 21:44:27 78° 75° (ENE) 21:48:43 437.345
GONETS M04 25 Jun 21:40:42 21:45:48 17° 298° (WNW) 21:50:56
HUMSAT D 25 Jun 21:47:32 21:50:38 21° 68° (ENE) 21:53:45 437.325/437.525
AO-85 25 Jun 21:50:12 21:54:39 26° 111° (ESE) 21:59:00 145.980
STRAND 1 25 Jun 21:50:41 21:54:17 20° 296° (WNW) 21:57:53 437.568
UWE-3 25 Jun 21:54:05 21:58:04 45° 261° (W) 22:02:08 435.000/436.395/437.385
Cosmos 2499 25 Jun 21:54:47 22:00:25 19° 297° (WNW) 22:06:16 435.465 / 435.565
Oscar 11 25 Jun 21:56:37 22:00:53 61° 259° (W) 22:05:13 145.826/435.025
FUNcube-1 25 Jun 21:59:47 22:03:54 66° 259° (W) 22:08:08 145.935
AAUSAT CUBESAT 2 25 Jun 22:15:40 22:18:05 15° 268° (W) 22:20:30 437.432
ESTCUBE 1 25 Jun 22:24:11 22:24:56 10° 61° (ENE) 22:25:43 437.505/2401.250
AISAT 25 Jun 22:42:03 22:42:34 10° 62° (ENE) 22:43:04 437.250
